Retour au catalogue

ATS 1

ActifScienceGEO
NORAD 2608·PAYLOAD·🇺🇸 United States

Lancé Dec 7, 1966 depuis Cape Canaveral Space Force Station

Loading…

TLE

FraisSource: Space-Track

Époque: Sep 14, 2026, 14:00 UTC

1 02608U 66110A   26257.58369198 -.00000136  00000-0  00000-0 0  9992
2 02608   5.1907  68.9600 0007004 185.0003 107.5147  1.00288301135699

Suivez ATS 1 en temps réel avec AllMySat

Download on the App Store